Ostrava, Czech Republic

9:58 PM CEST on May 24, 2017 (GMT +0200)
Mosnov

Weather History for LKMT - September, 2012

Change the Weather History Date:

Thursday, September 20, 2012

  Actual Average Record
Temperature  
Mean Temperature 51 °F -  
Max Temperature 58 °F 60 °F - ()
Min Temperature 44 °F 43 °F - ()
Degree Days  
Heating Degree Days 14    
Growing Degree Days 1 (Base 50)    
Moisture  
Dew Point 43 °F    
Average Humidity 75    
Maximum Humidity 94    
Minimum Humidity 48    
Precipitation  
Precipitation 0.01 in 0.06 in - ()
Sea Level Pressure  
Sea Level Pressure 30.16 in    
Wind  
Wind Speed 4 mph ()    
Max Wind Speed 13 mph    
Max Gust Speed -    
Visibility 6.4 miles    
Events      
T = Trace of Precipitation, MM = Missing Value Source: Averaged Metar Reports

Daily Weather History Graph

Daily Weather History Graph

Search for Another Location

Airport or City:

Trip Planner

Search our weather history database for the weather conditions in past years. The results will help you decide how hot, cold, wet, or windy it might be!

Date:

Astronomy

Sep. 20, 2012 Rise Set
Actual Time 6:31 AM CEST 6:49 PM CEST
Civil Twilight 5:59 AM CEST 7:21 PM CEST
Nautical Twilight 5:21 AM CEST 7:59 PM CEST
Astronomical Twilight 4:41 AM CEST 8:38 PM CEST
Moon 12:02 PM CEST (9/20) 9:01 PM CEST (9/20)
Length of Visible Light 13h 22m
Length of Day
12h 18m
Waxing Crescent, 24% of the Moon is Illuminated
Sep 20
Waxing Crescent
Sep 22
First Quarter
Sep 30
Full
Oct 8
Last Quarter
Oct 15
New

Hourly Weather History & Observations

Time (CEST) Temp. Windchill Dew Point Humidity Pressure Visibility Wind Dir Wind Speed Gust Speed Precip Events Conditions
12:00 AM 50.0 °F - 48.2 °F 94% 30.09 in 4.3 mi Variable 2.3 mph - N/A   Partly Cloudy
12:30 AM 50.0 °F - 48.2 °F 94% 30.09 in 3.1 mi Calm Calm - N/A   Mist
1:00 AM 50.0 °F - 48.2 °F 94% 30.09 in 3.1 mi Variable 1.2 mph - N/A   Mist
1:30 AM 50.0 °F - 48.2 °F 94% 30.09 in 3.1 mi Calm Calm - N/A   Mist
2:00 AM 49 °F - 47 °F 91% 30.12 in 3 mi NNW 2.2 mph - -   Mist
2:00 AM 50.0 °F - 48.2 °F 94% 30.09 in 3.1 mi Variable 2.3 mph - N/A   Mist
2:30 AM 50.0 °F - 46.4 °F 87% 30.09 in - Variable 1.2 mph - N/A   Clear
3:00 AM 48.2 °F - 44.6 °F 87% 30.09 in - Variable 2.3 mph - N/A   Clear
3:30 AM 48.2 °F - 44.6 °F 87% 30.09 in - NE 2.3 mph - N/A   Clear
4:00 AM 50.0 °F - 44.6 °F 82% 30.09 in - East 2.3 mph - N/A   Clear
4:30 AM 48.2 °F - 44.6 °F 87% 30.09 in - Variable 2.3 mph - N/A   Clear
5:00 AM 48.2 °F - 44.6 °F 87% 30.09 in - Variable 2.3 mph - N/A   Clear
5:30 AM 48.2 °F - 42.8 °F 82% 30.12 in - Variable 2.3 mph - N/A   Clear
6:30 AM 48.2 °F - 42.8 °F 82% 30.12 in - ENE 3.5 mph - N/A   Clear
7:00 AM 48.2 °F - 42.8 °F 82% 30.12 in - ENE 3.5 mph - N/A   Clear
7:30 AM 48.2 °F - 42.8 °F 82% 30.12 in - Variable 2.3 mph - N/A   Clear
8:00 AM 49 °F - 43 °F 73% 30.17 in 19 mi NNE 4.5 mph - -   Scattered Clouds
8:00 AM 48.2 °F - 42.8 °F 82% 30.12 in - NNE 4.6 mph - N/A   Clear
8:30 AM 50.0 °F - 42.8 °F 76% 30.15 in - North 5.8 mph - N/A   Clear
9:00 AM 50.0 °F - 42.8 °F 76% 30.15 in - North 5.8 mph - N/A   Clear
9:30 AM 50.0 °F - 42.8 °F 76% 30.15 in - North 5.8 mph - N/A   Clear
10:00 AM 51.8 °F - 42.8 °F 71% 30.15 in - North 10.4 mph - N/A   Clear
10:30 AM 51.8 °F - 42.8 °F 71% 30.15 in - North 11.5 mph - N/A   Clear
11:00 AM 53.6 °F - 42.8 °F 67% 30.15 in - North 10.4 mph - N/A   Clear
11:30 AM 53.6 °F - 42.8 °F 67% 30.18 in 6.2 mi North 11.5 mph - N/A   Partly Cloudy
12:00 PM 55.4 °F - 42.8 °F 63% 30.18 in 6.2 mi North 10.4 mph - N/A   Partly Cloudy
12:30 PM 55.4 °F - 42.8 °F 63% 30.18 in 6.2 mi NNE 9.2 mph - N/A   Scattered Clouds
1:00 PM 57.2 °F - 42.8 °F 59% 30.18 in 6.2 mi NNE 10.4 mph - N/A   Mostly Cloudy
1:30 PM 55.4 °F - 41.0 °F 58% 30.18 in 6.2 mi North 9.2 mph - N/A   Mostly Cloudy
2:00 PM 57 °F - 43 °F 49% 30.19 in 22 mi North 8.9 mph - -   Mostly Cloudy
2:00 PM 55.4 °F - 41.0 °F 58% 30.18 in 6.2 mi North 10.4 mph - N/A   Scattered Clouds
2:30 PM 57.2 °F - 41.0 °F 55% 30.18 in 6.2 mi NNE 10.4 mph - N/A   Scattered Clouds
3:00 PM 59.0 °F - 39.2 °F 48% 30.18 in 6.2 mi NNW 10.4 mph - N/A   Scattered Clouds
3:30 PM 57.2 °F - 39.2 °F 51% 30.18 in 6.2 mi North 12.7 mph - N/A   Scattered Clouds
4:00 PM 55.4 °F - 39.2 °F 54% 30.18 in 6.2 mi North 8.1 mph - N/A   Partly Cloudy
4:30 PM 57.2 °F - 39.2 °F 51% 30.18 in 6.2 mi North 8.1 mph - N/A   Partly Cloudy
5:00 PM 57.2 °F - 41.0 °F 55% 30.18 in 6.2 mi NNW 6.9 mph - N/A   Scattered Clouds
5:30 PM 55.4 °F - 44.6 °F 67% 30.18 in 6.2 mi NNE 6.9 mph - N/A   Partly Cloudy
6:00 PM 55.4 °F - 42.8 °F 63% 30.21 in - NE 5.8 mph - N/A   Clear
6:30 PM 53.6 °F - 42.8 °F 67% 30.21 in - NE 5.8 mph - N/A   Clear
7:00 PM 51.8 °F - 42.8 °F 71% 30.21 in - NE 2.3 mph - N/A   Clear
7:30 PM 51.8 °F - 44.6 °F 76% 30.21 in - Calm Calm - N/A   Clear
8:00 PM 49 °F - 43 °F 73% 30.26 in 16 mi West 2.2 mph - -   Partly Cloudy
8:00 PM 48.2 °F - 42.8 °F 82% 30.24 in - WSW 2.3 mph - N/A   Clear
8:30 PM 50.0 °F - 44.6 °F 82% 30.24 in - SSW 2.3 mph - N/A   Clear
9:00 PM 46.4 °F 44.3 °F 44.6 °F 93% 30.24 in - SW 4.6 mph - N/A   Clear
9:30 PM 46.4 °F - 42.8 °F 87% 30.24 in - Variable 2.3 mph - N/A   Clear
10:00 PM 44.6 °F - 41.0 °F 87% 30.24 in - Variable 1.2 mph - N/A   Clear
10:30 PM 44.6 °F - 41.0 °F 87% 30.24 in - Variable 2.3 mph - N/A   Clear
11:00 PM 44.6 °F - 41.0 °F 87% 30.24 in - Variable 2.3 mph - N/A   Clear
11:30 PM 44.6 °F - 41.0 °F 87% 30.24 in - Variable 2.3 mph - N/A   Clear